Fairfield, IL

8:23 PM CST on December 15, 2019 (GMT -0600)
Fairfield Municipal

Weather History for KFWC - October, 2019

Change the Weather History Date:

Thursday, October 31, 2019

  Actual Average (WUND) Record (WUND)
Temperature  
Mean Temperature 36 °F -  
Max Temperature 44 °F - - (-1)
Min Temperature 28 °F - - (-1)
Degree Days  
Heating Degree Days 29    
Moisture  
Dew Point 32 °F    
Average Humidity 88    
Maximum Humidity 100    
Minimum Humidity 71    
Precipitation  
Precipitation 0.62 in - - ()
Sea Level Pressure  
Sea Level Pressure 30.05 in    
Wind  
Wind Speed 4 mph ()    
Max Wind Speed 13 mph    
Max Gust Speed 21 mph    
Visibility 9.3 miles    
Events Rain    
Averages and records for this station are not official NWS values.
T = Trace of Precipitation, MM = Missing Value Source: Averaged Metar Reports

Daily Weather History Graph

Daily Weather History Graph

Search for Another Location

Airport or City:

Astronomy

Oct. 31, 2019 Rise Set
Actual Time 7:18 AM CDT 5:55 PM CDT
Civil Twilight 6:51 AM CDT 6:22 PM CDT
Nautical Twilight 6:20 AM CDT 6:53 PM CDT
Astronomical Twilight 5:49 AM CDT 7:24 PM CDT
Moon 11:04 AM CDT (10/31) 8:53 PM CDT (10/31)
Length of Visible Light 11h 31m
Length of Day
10h 36m
Waxing Crescent, 16% of the Moon is Illuminated
Oct 31
Waxing Crescent
Nov 4
First Quarter
Nov 12
Full
Nov 19
Last Quarter
Nov 26
New

Hourly Weather History & Observations

Time (CDT) Temp. Windchill Dew Point Humidity Pressure Visibility Wind Dir Wind Speed Gust Speed Precip Events Conditions
12:15 AM 44.8 °F - 44.8 °F 100% 29.85 in 4.0 mi Calm Calm - N/A   Drizzle
12:35 AM 44.6 °F - 44.6 °F 100% 29.85 in 3.0 mi Calm Calm - N/A   Heavy Drizzle
12:55 AM 44.2 °F - 44.2 °F 100% 29.86 in 2.5 mi Calm Calm - 0.02 in   Heavy Drizzle
1:15 AM 43.9 °F - 43.9 °F 100% 29.86 in 4.0 mi Calm Calm - 0.07 in Rain Heavy Rain
1:35 AM 43.7 °F 42.1 °F 43.7 °F 100% 29.86 in 7.0 mi WNW 3.5 mph - 0.13 in Rain Rain
1:55 AM 43.0 °F 41.3 °F 43.0 °F 100% 29.84 in 7.0 mi WNW 3.5 mph - 0.15 in Rain Rain
2:15 AM 42.1 °F - 42.1 °F 100% 29.89 in 5.0 mi Calm Calm - 0.08 in Rain Heavy Rain
2:35 AM 41.2 °F 38.2 °F 41.2 °F 100% 29.84 in 5.0 mi WNW 4.6 mph - 0.18 in Rain Heavy Rain
2:55 AM 41.2 °F 38.2 °F 41.2 °F 100% 29.85 in 7.0 mi NW 4.6 mph - 0.23 in Rain Rain
3:15 AM 40.6 °F 38.6 °F 40.6 °F 100% 29.85 in 10.0 mi WNW 3.5 mph - 0.02 in Rain Rain
3:35 AM 40.3 °F - 40.3 °F 100% 29.87 in 7.0 mi Calm Calm - 0.07 in Rain Heavy Rain
3:55 AM 39.9 °F 36.7 °F 39.9 °F 100% 29.85 in 7.0 mi WNW 4.6 mph - 0.14 in Rain Rain
4:15 AM 39.2 °F 34.2 °F 39.2 °F 100% 29.85 in 10.0 mi WNW 6.9 mph - 0.04 in Rain Rain
4:35 AM 38.5 °F 34.1 °F 38.3 °F 99% 29.84 in 10.0 mi WNW 5.8 mph - 0.06 in Rain Rain
4:55 AM 37.4 °F 31.4 °F 36.7 °F 97% 29.85 in 10.0 mi WNW 8.1 mph - 0.07 in Rain Light Rain
5:15 AM 36.5 °F 31.0 °F 36.1 °F 99% 29.86 in 10.0 mi WNW 6.9 mph - 0.01 in Rain Light Rain
5:35 AM 36.0 °F 31.1 °F 35.6 °F 99% 29.87 in 10.0 mi WNW 5.8 mph - 0.01 in   Overcast
5:55 AM 35.8 °F 30.9 °F 35.6 °F 99% 29.88 in 10.0 mi WNW 5.8 mph - 0.01 in   Overcast
6:15 AM 35.6 °F 30.7 °F 34.7 °F 97% 29.88 in 10.0 mi WNW 5.8 mph - N/A   Overcast
6:35 AM 35.1 °F 29.3 °F 34.0 °F 96% 29.87 in 10.0 mi WNW 6.9 mph - N/A   Overcast
6:55 AM 34.7 °F 28.8 °F 33.4 °F 95% 29.88 in 10.0 mi WNW 6.9 mph - N/A   Overcast
7:15 AM 34.7 °F 29.6 °F 33.4 °F 95% 29.89 in 10.0 mi West 5.8 mph - N/A Rain Light Rain
7:35 AM 34.5 °F 31.6 °F 33.1 °F 94% 29.91 in 10.0 mi NW 3.5 mph - N/A   Overcast
7:55 AM 34.2 °F 28.2 °F 33.4 °F 97% 29.91 in 10.0 mi West 6.9 mph - N/A Rain Light Rain
8:15 AM 34.0 °F 27.2 °F 32.0 °F 92% 29.93 in 10.0 mi WNW 8.1 mph - N/A   Overcast
8:35 AM 34.2 °F 29.0 °F 31.5 °F 90% 29.94 in 10.0 mi WNW 5.8 mph - N/A   Overcast
8:55 AM 34.3 °F 27.7 °F 31.6 °F 90% 29.94 in 10.0 mi West 8.1 mph - N/A   Overcast
9:15 AM 33.8 °F 25.8 °F 31.1 °F 90% 29.96 in 10.0 mi West 10.4 mph 17.3 mph N/A   Overcast
9:35 AM 33.6 °F 27.5 °F 30.9 °F 90% 29.96 in 10.0 mi West 6.9 mph - N/A   Overcast
9:55 AM 33.4 °F 26.6 °F 30.2 °F 88% 29.97 in 10.0 mi WNW 8.1 mph 16.1 mph N/A   Overcast
10:15 AM 33.8 °F 28.6 °F 30.0 °F 86% 29.98 in 10.0 mi West 5.8 mph 16.1 mph N/A   Overcast
10:35 AM 33.6 °F 26.2 °F 30.7 °F 89% 29.99 in 10.0 mi West 9.2 mph 17.3 mph N/A   Overcast
10:55 AM 33.8 °F 26.4 °F 30.7 °F 89% 30.00 in 10.0 mi West 9.2 mph - N/A   Overcast
11:15 AM 33.3 °F 26.4 °F 30.2 °F 89% 30.01 in 10.0 mi West 8.1 mph 17.3 mph N/A   Overcast
11:35 AM 33.8 °F 27.7 °F 30.6 °F 88% 30.01 in 10.0 mi West 6.9 mph - N/A   Overcast
11:55 AM 34.7 °F 28.8 °F 30.7 °F 85% 30.02 in 10.0 mi West 6.9 mph - N/A   Overcast
12:15 PM 34.7 °F 28.1 °F 30.0 °F 83% 30.03 in 10.0 mi West 8.1 mph - N/A   Overcast
12:35 PM 34.5 °F 27.3 °F 29.3 °F 81% 30.04 in 10.0 mi West 9.2 mph 16.1 mph N/A   Overcast
12:55 PM 34.0 °F 25.0 °F 28.6 °F 81% 30.04 in 10.0 mi West 12.7 mph 20.7 mph N/A   Overcast
1:15 PM 34.7 °F 27.5 °F 27.9 °F 76% 30.06 in 10.0 mi West 9.2 mph 17.3 mph N/A   Overcast
1:35 PM 34.2 °F 28.2 °F 28.2 °F 79% 30.07 in 10.0 mi West 6.9 mph - N/A   Overcast
1:55 PM 33.8 °F 27.7 °F 27.7 °F 78% 30.08 in 10.0 mi West 6.9 mph - N/A   Overcast
2:15 PM 33.8 °F 27.7 °F 27.5 °F 78% 30.09 in 10.0 mi West 6.9 mph - N/A   Overcast
2:35 PM 33.8 °F 27.0 °F 27.3 °F 77% 30.10 in 10.0 mi West 8.1 mph - N/A   Overcast
2:55 PM 34.2 °F 29.0 °F 27.3 °F 76% 30.11 in 10.0 mi WNW 5.8 mph - N/A   Overcast
3:15 PM 34.2 °F 28.2 °F 26.6 °F 74% 30.12 in 10.0 mi West 6.9 mph - N/A   Overcast
3:35 PM 34.0 °F 28.8 °F 26.6 °F 74% 30.14 in 10.0 mi West 5.8 mph 16.1 mph N/A   Overcast
3:55 PM 34.0 °F 27.2 °F 26.2 °F 73% 30.15 in 10.0 mi West 8.1 mph - N/A   Overcast
4:15 PM 34.0 °F 27.2 °F 25.9 °F 72% 30.16 in 10.0 mi West 8.1 mph - N/A   Overcast
4:35 PM 34.0 °F 27.2 °F 25.7 °F 72% 30.17 in 10.0 mi West 8.1 mph - N/A   Overcast
4:55 PM 34.0 °F 28.0 °F 26.1 °F 73% 30.18 in 10.0 mi West 6.9 mph - N/A   Overcast
5:15 PM 34.2 °F 30.0 °F 25.7 °F 71% 30.20 in 10.0 mi West 4.6 mph - N/A   Overcast
5:35 PM 34.2 °F 31.2 °F 26.4 °F 73% 30.21 in 10.0 mi West 3.5 mph - N/A   Overcast
5:55 PM 34.2 °F 30.0 °F 26.6 °F 74% 30.22 in 10.0 mi West 4.6 mph - N/A   Overcast
6:15 PM 34.2 °F - 26.6 °F 74% 30.23 in 10.0 mi Calm Calm - N/A   Overcast
6:35 PM 34.2 °F 31.2 °F 26.6 °F 74% 30.24 in 10.0 mi West 3.5 mph - N/A   Overcast
6:55 PM 34.0 °F 29.8 °F 26.6 °F 74% 30.25 in 10.0 mi West 4.6 mph - N/A   Overcast
7:15 PM 34.0 °F - 26.1 °F 73% 30.25 in 10.0 mi Calm Calm - N/A   Overcast
7:35 PM 33.6 °F 30.6 °F 26.1 °F 74% 30.26 in 10.0 mi West 3.5 mph - N/A   Overcast
7:55 PM 33.3 °F - 25.7 °F 74% 30.27 in 10.0 mi Calm Calm - N/A   Scattered Clouds
8:15 PM 32.9 °F - 25.7 °F 75% 30.27 in 10.0 mi Calm Calm - N/A   Clear
8:35 PM 32.0 °F - 26.1 °F 79% 30.27 in 10.0 mi Calm Calm - N/A   Clear
8:55 PM 31.3 °F - 26.4 °F 82% 30.27 in 10.0 mi Calm Calm - N/A   Clear
9:15 PM 30.2 °F - 27.1 °F 88% 30.28 in 10.0 mi Calm Calm - N/A   Clear
9:35 PM 29.3 °F - 27.7 °F 94% 30.29 in 10.0 mi Calm Calm - N/A   Clear
9:55 PM 29.3 °F - 28.0 °F 95% 30.29 in 10.0 mi Calm Calm - N/A   Clear
10:15 PM 29.3 °F - 28.2 °F 96% 30.29 in 10.0 mi Calm Calm - N/A   Clear
10:35 PM 29.1 °F - 27.3 °F 93% 30.30 in 10.0 mi Calm Calm - N/A   Clear
10:55 PM 28.9 °F - 27.0 °F 92% 30.30 in 10.0 mi Calm Calm - N/A   Clear
11:15 PM 29.3 °F - 26.8 °F 90% 30.30 in 10.0 mi Calm Calm - N/A   Clear
11:35 PM 28.6 °F 24.8 °F 26.8 °F 93% 30.30 in 10.0 mi SSW 3.5 mph - N/A   Clear
11:55 PM 28.6 °F - 26.6 °F 92% 30.30 in 10.0 mi Calm Calm - N/A   Clear